This demonstration page uses our WeatherBlox Daily Observations layout. Learn more.

Left ArrowRight Arrow

Hourly Observations for March 28, 2022

Temp ( °F °C ) Dew Point ( °F °C ) Humidity (%) Winds ( mph kmh ) Pressure ( in mb ) Visibility ( mi km ) Precip ( " mm )
12:56 am 00:56 Clear 31 -0.6 15 -9.4 52 52 ESE 13 20 30.14 1021 10 16 0.00 0.00
1:56 am 01:56 Clear 30 -1.1 15 -9.4 54 54 ESE 12 19 30.13 1020 10 16 0.00 0.00
2:56 am 02:56 Clear 28 -2.2 15 -9.4 58 58 ESE 8 13 30.11 1020 10 16 0.00 0.00
3:56 am 03:56 Clear 28 -2.2 15 -9.4 58 58 SE 9 15 30.10 1019 10 16 0.00 0.00
4:56 am 04:56 Clear 26 -3.3 15 -9.4 63 63 SE 7 11 30.09 1019 10 16 0.00 0.00
5:56 am 05:56 Clear 25 -3.9 15 -9.4 66 66 SE 8 13 30.08 1019 10 16 0.00 0.00
6:56 am 06:56 Clear 26 -3.3 16 -8.9 66 66 ESE 9 15 30.07 1018 10 16 0.00 0.00
7:56 am 07:56 Sunny 27 -2.8 17 -8.3 66 66 undefined N/A 30.08 1019 10 16 0.00 0.00
8:56 am 08:56 Sunny 32 0 20 -6.7 61 61 ESE 10 17 30.08 1019 10 16 0.00 0.00
9:56 am 09:56 Sunny 38 3.3 19 -7.2 46 46 SE 16 26 30.05 1018 10 16 0.00 0.00
10:56 am 10:56 Sunny 44 6.7 20 -6.7 38 38 SSE 18 30 30.03 1017 10 16 0.00 0.00
11:56 am 11:56 Sunny 48 8.9 22 -5.6 36 36 SSE 20 31 30.00 1016 10 16 0.00 0.00
12:56 pm 12:56 Sunny 51 10.6 24 -4.4 35 35 SE 18 30 29.97 1015 10 16 0.00 0.00
1:56 pm 13:56 Sunny 55 12.8 26 -3.3 33 33 SE 17 28 29.92 1013 10 16 0.00 0.00
2:56 pm 14:56 Sunny 59 15 29 -1.7 32 32 SE 17 28 29.87 1012 10 16 0.00 0.00
3:56 pm 15:56 Sunny 58 14.4 30 -1.1 35 35 SSE 18 30 29.86 1011 10 16 0.00 0.00
4:56 pm 16:56 Sunny 59 15 31 -0.6 35 35 SE 21 33 29.83 1010 10 16 0.00 0.00
5:56 pm 17:56 Sunny 57 13.9 32 0 39 39 SSE 23 37 29.82 1010 10 16 0.00 0.00
6:56 pm 18:56 Sunny 55 12.8 31 -0.6 40 40 SE 16 26 29.82 1010 10 16 0.00 0.00
7:56 pm 19:56 Sunny 54 12.2 32 0 43 43 SE 16 26 29.82 1010 10 16 0.00 0.00
8:56 pm 20:56 Clear 48 8.9 32 0 54 54 SE 10 17 29.83 1010 10 16 0.00 0.00
9:56 pm 21:56 Clear 45 7.2 30 -1.1 56 56 ESE 9 15 29.82 1010 10 16 0.00 0.00
10:56 pm 22:56 Clear 43 6.1 31 -0.6 63 63 ESE 12 19 29.81 1009 10 16 0.00 0.00
11:56 pm 23:56 Clear 43 6.1 31 -0.6 63 63 SE 17 28 29.78 1009 10 16 0.00 0.00

Powered by AerisWeather